Home   Weather   St. George   Past weeks
Flag for USA

Past Weather in St. George, Utah, USA — December 2013

Now
40 °F

Sunny.


Feels Like: 40 °F
Forecast: 57 / 33 °F
Wind: No wind

Location: Saint George

Current Time: Feb 18, 2020 at 9:27:41 am

Latest Report: Feb 18, 2020 at 8:56 am


Visibility: 10 mi

Pressure: 30.22 "Hg (27.24 "Hg at 842m altitude)

Humidity: 40%

Dew Point: 17 °F

Location of St. GeorgeLocation

December 2013 Weather in St. George — Graph

°F

High & Low Weather Summary for December 2013

 TemperatureHumidityPressure
High55 °F (Dec 25, 4:15 pm)100% (Dec 8, 8:15 am)30.58 "Hg (Dec 8, 8:15 am)
Low1 °F (Dec 9, 2:15 am)26% (Dec 25, 4:15 pm)29.48 "Hg (Dec 3, 5:55 pm)
Average33 °F65%30.21 "Hg
* Reported Dec 1 12:15 am — Dec 31 11:55 pm, St. George. Weather by CustomWeather, © 2020

Note: Actual official high and low records may vary slightly from our data, if they occured in-between our weather recording intervals... More about our weather records

St. George Weather History for December 1, 2013

Scroll right to see more
 ConditionsComfort  
Time TempWeatherWind HumidityBarometerVisibility
12:15 am
Sun, Dec 1
43 °FClear.14 mph61%30.33 "Hg10 mi
12:35 am41 °FClear.14 mph66%30.34 "Hg10 mi
12:55 am41 °FClear.8 mph66%30.34 "Hg10 mi
1:15 am39 °FClear.6 mph70%30.34 "Hg10 mi
1:35 am39 °FClear.7 mph70%30.34 "Hg10 mi
1:55 am39 °FClear.5 mph70%30.34 "Hg10 mi
2:15 am39 °FClear.No wind70%30.35 "Hg10 mi
2:35 am41 °FClear.7 mph66%30.36 "Hg10 mi
2:55 am39 °FClear.8 mph70%30.35 "Hg10 mi
3:15 am39 °FClear.5 mph70%30.35 "Hg10 mi
3:35 am39 °FClear.3 mph70%30.36 "Hg10 mi
3:55 am37 °FClear.6 mph75%30.35 "Hg10 mi
4:15 am37 °FClear.7 mph75%30.36 "Hg10 mi
4:35 am39 °FClear.7 mph70%30.36 "Hg10 mi
4:55 am37 °FClear.No wind70%30.36 "Hg10 mi
5:15 am37 °FClear.No wind70%30.37 "Hg10 mi
5:35 am37 °FClear.5 mph75%30.37 "Hg10 mi
5:55 am39 °FClear.6 mph70%30.38 "Hg10 mi
6:15 am37 °FClear.10 mph75%30.38 "Hg10 mi
6:35 am37 °FClear.7 mph70%30.38 "Hg10 mi
6:55 am36 °FClear.7 mph75%30.39 "Hg10 mi
7:15 am37 °FClear.5 mph75%30.40 "Hg10 mi
7:35 am37 °FSunny.No wind75%30.41 "Hg10 mi
7:55 am37 °FSunny.No wind70%30.41 "Hg10 mi
8:15 am37 °FSunny.No wind75%30.42 "Hg10 mi
8:35 am37 °FSunny.No wind75%30.42 "Hg10 mi
8:55 am37 °FSunny.5 mph75%30.42 "Hg10 mi
9:15 am37 °FSunny.No wind75%30.43 "Hg10 mi
9:35 am39 °FSunny.5 mph70%30.43 "Hg10 mi
9:55 am39 °FSunny.6 mph70%30.43 "Hg10 mi
10:15 am43 °FSunny.6 mph66%30.44 "Hg10 mi
10:55 am45 °FSunny.No wind66%30.44 "Hg10 mi
11:15 am46 °FSunny.6 mph62%30.43 "Hg10 mi
11:35 am45 °FSunny.3 mph66%30.42 "Hg10 mi
11:55 am46 °FSunny.6 mph62%30.40 "Hg10 mi
12:15 pm46 °FSunny.No wind62%30.39 "Hg10 mi
12:35 pm46 °FSunny.No wind62%30.38 "Hg10 mi
12:55 pm48 °FSunny.5 mph58%30.37 "Hg10 mi
1:15 pm48 °FSunny.3 mph58%30.35 "Hg10 mi
1:55 pm50 °FSunny.5 mph54%30.32 "Hg10 mi
2:15 pm52 °FSunny.3 mph54%30.31 "Hg10 mi
2:35 pm52 °FSunny.No wind50%30.30 "Hg10 mi
2:55 pm52 °FSunny.6 mph50%30.30 "Hg10 mi
3:15 pm52 °FSunny.5 mph50%30.30 "Hg10 mi
3:35 pm52 °FSunny.No wind50%30.30 "Hg10 mi
3:55 pm52 °FSunny.No wind50%30.30 "Hg10 mi
4:15 pm52 °FSunny.No wind50%30.30 "Hg10 mi
4:35 pm52 °FSunny.No wind50%30.29 "Hg10 mi
4:55 pm52 °FSunny.5 mph50%30.28 "Hg10 mi
5:15 pm52 °FSunny.5 mph54%30.28 "Hg10 mi
5:35 pm48 °FClear.6 mph62%30.28 "Hg10 mi
5:55 pm48 °FClear.No wind62%30.28 "Hg10 mi
6:15 pm46 °FClear.No wind66%30.28 "Hg10 mi
6:35 pm46 °FClear.No wind62%30.28 "Hg10 mi
6:55 pm46 °FClear.No wind66%30.28 "Hg10 mi
7:35 pm43 °FClear.3 mph76%30.28 "Hg10 mi
7:55 pm45 °FClear.3 mph71%30.28 "Hg10 mi
8:15 pm43 °FClear.3 mph71%30.28 "Hg10 mi
8:35 pm43 °FClear.5 mph71%30.28 "Hg10 mi
8:55 pm43 °FClear.6 mph71%30.29 "Hg10 mi
9:15 pm43 °FClear.3 mph71%30.29 "Hg10 mi
9:35 pm43 °FClear.No wind71%30.29 "Hg10 mi
9:55 pm41 °FClear.No wind76%30.30 "Hg10 mi
10:15 pm43 °FClear.No wind71%30.29 "Hg10 mi
10:35 pm39 °FClear.3 mph81%30.30 "Hg10 mi
10:55 pm39 °FClear.8 mph81%30.30 "Hg10 mi
11:15 pm39 °FClear.3 mph81%30.31 "Hg10 mi
11:55 pm41 °FClear.3 mph70%30.30 "Hg10 mi
Weather by CustomWeather, © 2020

See weather overview

Advertising